When you browse on this site, cookies collect data to enhance your experience and personalize the content and advertising you see.
Visit our Privacy Policy to learn more. By continuing to use the site, you agree to this use of cookies and data.
  • In Latvia
  • List of Countries
  • For 7 days
  • Water Temperature
  • Weather Map
  • Weather Widgets
  • user-avatar
    Login

    Hourly Weather Ząbkowice Śląskie

    Today, 30 May, Saturday

    Time Temperature Precipitation Wind Pressure Humidity
    00:00 +7°C° 0 mm 1 mps 741 mmHg 91%
    01:00 +6°C° 0 mm 1 mps 741 mmHg 92%
    02:00 +6°C° 0 mm 1 mps 741 mmHg 93%
    03:00 +4°C° 0 mm 2 mps 741 mmHg 94%
    04:00 +3°C° 0 mm 2 mps 740 mmHg 94%
    05:00 +5°C° 0 mm 2 mps 741 mmHg 91%
    06:00 +5°C° 0 mm 3 mps 741 mmHg 88%
    07:00 +7°C° 0 mm 3 mps 741 mmHg 84%
    08:00 +8°C° 0 mm 3 mps 740 mmHg 84%
    09:00 +7°C° 0 mm 4 mps 740 mmHg 83%
    10:00 +8°C° 0 mm 4 mps 740 mmHg 83%
    11:00 +10°C° 0.2 mm 4 mps 740 mmHg 80%
    12:00 +11°C° 0.2 mm 4 mps 740 mmHg 77%
    13:00 +13°C° 0.2 mm 4 mps 740 mmHg 74%
    14:00 +13°C° 0.3 mm 5 mps 739 mmHg 74%
    15:00 +13°C° 0.3 mm 5 mps 739 mmHg 74%
    16:00 +13°C° 0.3 mm 5 mps 739 mmHg 75%
    17:00 +12°C° 0.1 mm 4 mps 739 mmHg 78%
    18:00 +12°C° 0.1 mm 3 mps 739 mmHg 81%
    19:00 +12°C° 0.1 mm 2 mps 739 mmHg 85%
    20:00 +10°C° 0 mm 2 mps 739 mmHg 86%
    21:00 +10°C° 0 mm 2 mps 739 mmHg 86%
    22:00 +9°C° 0 mm 2 mps 739 mmHg 87%
    23:00 +8°C° 0 mm 2 mps 739 mmHg 88%

    Tomorrow, 31 May, Sunday

    Time Temperature Precipitation Wind Pressure Humidity
    00:00 +8°C° 0 mm 2 mps 739 mmHg 89%
    01:00 +8°C° 0 mm 2 mps 738 mmHg 91%
    02:00 +8°C° 0 mm 2 mps 738 mmHg 90%
    03:00 +8°C° 0 mm 3 mps 738 mmHg 89%
    04:00 +7°C° 0 mm 3 mps 738 mmHg 89%
    05:00 +8°C° 0.1 mm 3 mps 738 mmHg 88%
    06:00 +7°C° 0.1 mm 4 mps 737 mmHg 88%
    07:00 +8°C° 0.1 mm 5 mps 737 mmHg 88%
    08:00 +8°C° 0 mm 5 mps 737 mmHg 87%
    09:00 +9°C° 0 mm 5 mps 737 mmHg 87%
    10:00 +9°C° 0 mm 5 mps 737 mmHg 86%
    11:00 +10°C° 0.1 mm 5 mps 737 mmHg 85%
    12:00 +12°C° 0.1 mm 5 mps 737 mmHg 84%
    13:00 +13°C° 0.1 mm 5 mps 737 mmHg 83%
    14:00 +13°C° 0.3 mm 5 mps 737 mmHg 85%
    15:00 +13°C° 0.3 mm 4 mps 737 mmHg 87%
    16:00 +13°C° 0.3 mm 4 mps 737 mmHg 88%
    17:00 +13°C° 0.2 mm 3 mps 738 mmHg 90%
    18:00 +13°C° 0.2 mm 3 mps 738 mmHg 91%
    19:00 +13°C° 0.2 mm 2 mps 738 mmHg 92%
    20:00 +12°C° 0.2 mm 3 mps 738 mmHg 92%
    21:00 +12°C° 0.2 mm 3 mps 739 mmHg 93%
    22:00 +11°C° 0.2 mm 3 mps 739 mmHg 94%
    23:00 +12°C° 0.1 mm 2 mps 739 mmHg 94%

    Day after tomorrow, 1 June, Monday

    Time Temperature Precipitation Wind Pressure Humidity
    00:00 +12°C° 0.1 mm 2 mps 740 mmHg 94%
    01:00 +10°C° 0.1 mm 2 mps 740 mmHg 95%
    02:00 +10°C° 0 mm 2 mps 740 mmHg 95%
    03:00 +10°C° 0 mm 2 mps 740 mmHg 96%
    04:00 +9°C° 0 mm 2 mps 740 mmHg 96%
    05:00 +10°C° 0 mm 2 mps 740 mmHg 94%
    06:00 +10°C° 0 mm 3 mps 740 mmHg 92%
    07:00 +11°C° 0 mm 3 mps 740 mmHg 90%
    08:00 +12°C° 0 mm 4 mps 741 mmHg 83%
    09:00 +14°C° 0 mm 4 mps 741 mmHg 77%
    10:00 +15°C° 0 mm 5 mps 741 mmHg 70%
    11:00 +15°C° 0 mm 5 mps 741 mmHg 67%
    12:00 +16°C° 0 mm 5 mps 741 mmHg 63%
    13:00 +16°C° 0 mm 6 mps 741 mmHg 60%
    14:00 +16°C° 0 mm 5 mps 741 mmHg 62%
    15:00 +16°C° 0 mm 5 mps 740 mmHg 64%
    16:00 +16°C° 0 mm 5 mps 740 mmHg 65%
    17:00 +15°C° 0 mm 5 mps 740 mmHg 69%
    18:00 +14°C° 0 mm 4 mps 740 mmHg 73%
    19:00 +13°C° 0 mm 4 mps 740 mmHg 77%
    20:00 +11°C° 0 mm 3 mps 740 mmHg 81%
    21:00 +10°C° 0 mm 3 mps 741 mmHg 84%
    22:00 +9°C° 0 mm 2 mps 741 mmHg 88%
    23:00 +8°C° 0 mm 2 mps 741 mmHg 90%

    2 June, Tuesday

    Time Temperature Precipitation Wind Pressure Humidity
    00:00 +7°C° 0 mm 2 mps 740 mmHg 92%
    01:00 +7°C° 0 mm 2 mps 740 mmHg 95%
    02:00 +7°C° 0 mm 2 mps 740 mmHg 94%
    03:00 +7°C° 0 mm 2 mps 740 mmHg 92%
    04:00 +7°C° 0 mm 2 mps 739 mmHg 91%
    05:00 +8°C° 0.1 mm 3 mps 739 mmHg 89%
    06:00 +8°C° 0.1 mm 4 mps 739 mmHg 87%
    07:00 +10°C° 0.1 mm 4 mps 739 mmHg 85%
    08:00 +10°C° 0.2 mm 4 mps 739 mmHg 87%
    09:00 +10°C° 0.2 mm 4 mps 739 mmHg 88%
    10:00 +11°C° 0.2 mm 4 mps 738 mmHg 89%
    11:00 +12°C° 0.3 mm 5 mps 738 mmHg 86%
    12:00 +13°C° 0.3 mm 5 mps 738 mmHg 83%
    13:00 +14°C° 0.3 mm 5 mps 737 mmHg 81%
    14:00 +15°C° 0.3 mm 5 mps 737 mmHg 78%
    15:00 +15°C° 0.3 mm 5 mps 736 mmHg 75%
    16:00 +16°C° 0.3 mm 5 mps 736 mmHg 72%
    17:00 +15°C° 0.1 mm 4 mps 735 mmHg 75%
    18:00 +14°C° 0.1 mm 3 mps 735 mmHg 78%
    19:00 +14°C° 0.1 mm 2 mps 735 mmHg 81%
    20:00 +12°C° 0 mm 1 mps 735 mmHg 82%
    21:00 +10°C° 0 mm 1 mps 735 mmHg 83%
    22:00 +8°C° 0 mm 0 mps 735 mmHg 84%
    23:00 +7°C° 0 mm 0 mps 735 mmHg 85%

    3 June, Wednesday

    Time Temperature Precipitation Wind Pressure Humidity
    00:00 +8°C° 0 mm 1 mps 734 mmHg 86%
    01:00 +8°C° 0 mm 1 mps 734 mmHg 86%
    02:00 +7°C° 0 mm 1 mps 734 mmHg 86%
    03:00 +7°C° 0 mm 1 mps 734 mmHg 87%
    04:00 +7°C° 0 mm 1 mps 734 mmHg 87%
    05:00 +9°C° 0 mm 1 mps 734 mmHg 83%
    06:00 +11°C° 0 mm 1 mps 734 mmHg 80%
    07:00 +13°C° 0 mm 1 mps 733 mmHg 76%
    08:00 +14°C° 0.1 mm 1 mps 733 mmHg 73%
    09:00 +15°C° 0.1 mm 2 mps 733 mmHg 70%
    10:00 +16°C° 0.1 mm 2 mps 733 mmHg 66%
    11:00 +16°C° 0.3 mm 2 mps 733 mmHg 67%
    12:00 +16°C° 0.3 mm 2 mps 733 mmHg 67%
    13:00 +17°C° 0.3 mm 2 mps 732 mmHg 68%
    14:00 +17°C° 0.1 mm 2 mps 732 mmHg 66%
    15:00 +17°C° 0.1 mm 2 mps 732 mmHg 63%
    16:00 +18°C° 0.1 mm 2 mps 732 mmHg 61%
    17:00 +17°C° 0.1 mm 2 mps 732 mmHg 67%
    18:00 +16°C° 0.1 mm 1 mps 731 mmHg 73%
    19:00 +14°C° 0.1 mm 1 mps 731 mmHg 79%
    20:00 +13°C° 0 mm 1 mps 731 mmHg 81%
    21:00 +12°C° 0 mm 1 mps 732 mmHg 84%
    22:00 +9°C° 0 mm 0 mps 732 mmHg 86%
    23:00 +9°C° 0 mm 0 mps 731 mmHg 87%

    4 June, Thursday

    Time Temperature Precipitation Wind Pressure Humidity
    00:00 +8°C° 0 mm 0 mps 731 mmHg 87%
    01:00 +8°C° 0 mm 0 mps 731 mmHg 88%
    02:00 +8°C° 0 mm 0 mps 731 mmHg 87%
    03:00 +8°C° 0 mm 0 mps 731 mmHg 87%
    04:00 +7°C° 0 mm 0 mps 731 mmHg 87%
    05:00 +9°C° 0 mm 0 mps 731 mmHg 83%
    06:00 +12°C° 0 mm 0 mps 731 mmHg 78%
    07:00 +14°C° 0 mm 0 mps 731 mmHg 73%
    08:00 +16°C° 0 mm 1 mps 731 mmHg 69%
    09:00 +18°C° 0 mm 1 mps 731 mmHg 65%
    10:00 +18°C° 0 mm 2 mps 731 mmHg 60%
    11:00 +18°C° 0 mm 2 mps 731 mmHg 60%
    12:00 +18°C° 0 mm 2 mps 730 mmHg 60%
    13:00 +19°C° 0 mm 2 mps 730 mmHg 60%
    14:00 +19°C° 0 mm 2 mps 730 mmHg 60%
    15:00 +19°C° 0 mm 2 mps 730 mmHg 60%
    16:00 +20°C° 0 mm 2 mps 729 mmHg 60%
    17:00 +19°C° 0 mm 2 mps 729 mmHg 66%
    18:00 +17°C° 0 mm 2 mps 729 mmHg 73%
    19:00 +16°C° 0 mm 1 mps 729 mmHg 79%
    20:00 +15°C° 0 mm 1 mps 729 mmHg 81%
    21:00 +13°C° 0 mm 1 mps 729 mmHg 83%
    22:00 +12°C° 0 mm 1 mps 729 mmHg 85%
    23:00 +12°C° 0 mm 1 mps 729 mmHg 86%
    Show more